Location: Multiple Mirror Telescope
(31.6889°N, 110.8853°W)
Time: 06:06:14
(UTC-07:00)

ISS - Pass Details

Date: 19 April 2026
Orbit: 414 x 424 km, 51.6° (Epoch: 18 May)

Event Time Altitude Azimuth Distance (km) Brightness Sun altitude
Exits shadow 03:24:11 17° 71° (ENE) 1,151 -0.8 -28.9°
Drops below altitude 10° 03:25:08 10° 63° (ENE) 1,495 0.0 -28.8°
Sets 03:27:20 0° 54° (NE) 2,364 1.3 -28.4°
